Weather History for KMCJ - March, 2014

Change the Weather History Date:

Friday, March 14, 2014

  Actual Average (KHOU) Record (KHOU)
Temperature  
Mean Temperature 62 °F 62 °F  
Max Temperature 71 °F 73 °F 88 °F (2008)
Min Temperature 53 °F 52 °F 29 °F (1993)
Degree Days  
Heating Degree Days 3 5  
Month to date heating degree days 83  
Since 1 July heating degree days 1271  
Cooling Degree Days 0 2  
Month to date cooling degree days 26  
Year to date cooling degree days 64  
Growing Degree Days 12 (Base 50)    
Moisture  
Dew Point 52 °F    
Average Humidity 70    
Maximum Humidity 88    
Minimum Humidity 50    
Precipitation  
Precipitation 0.00 in 0.11 in 1.82 in (2001)
Month to date precipitation 1.58  
Year to date precipitation 8.16  
Sea Level Pressure  
Sea Level Pressure 30.05 in    
Wind  
Wind Speed 10 mph (ESE)    
Max Wind Speed 21 mph    
Max Gust Speed 28 mph    
Visibility 10 miles    
Events      
T = Trace of Precipitation, MM = Missing Value Source: NWS Daily Summary

Daily Weather History Graph

Daily Weather History Graph

Search for Another Location

Airport or City:

Trip Planner

Search our weather history database for the weather conditions in past years. The results will help you decide how hot, cold, wet, or windy it might be!

Date:

Astronomy

Mar. 14, 2014 Rise Set
Actual Time 7:32 AM CDT 7:29 PM CDT
Civil Twilight 7:08 AM CDT 7:53 PM CDT
Nautical Twilight 6:41 AM CDT 8:20 PM CDT
Astronomical Twilight 6:13 AM CDT 8:48 PM CDT
Moon 5:57 PM CDT (3/14) 6:06 AM CDT (3/14)
Length of Visible Light 12h 44m
Length of Day
11h 56m
Waxing Gibbous, 96% of the Moon is Illuminated
Mar 14
Waxing Gibbous
Mar 16
Full
Mar 23
Last Quarter
Mar 30
New
Apr 7
First Quarter

Hourly Weather History & Observations

Time (CDT) Temp. Dew Point Humidity Pressure Visibility Wind Dir Wind Speed Gust Speed Precip Events Conditions
12:15 AM 53.6 °F 41.0 °F 62% 30.14 in 10.0 mi ESE 9.2 mph - N/A   Clear
12:35 AM 53.6 °F 42.8 °F 67% 30.13 in 10.0 mi East 8.1 mph - N/A   Clear
12:55 AM 53.6 °F 42.8 °F 67% 30.13 in 10.0 mi ESE 9.2 mph - N/A   Clear
1:15 AM 53.6 °F 44.6 °F 72% 30.12 in 10.0 mi ESE 9.2 mph - N/A   Clear
1:35 AM 53.6 °F 44.6 °F 72% 30.11 in 10.0 mi SE 9.2 mph - N/A   Clear
1:55 AM 53.6 °F 44.6 °F 72% 30.10 in 10.0 mi East 9.2 mph - N/A   Clear
2:15 AM 53.6 °F 44.6 °F 72% 30.10 in 10.0 mi ESE 9.2 mph - N/A   Clear
2:35 AM 53.6 °F 46.4 °F 77% 30.10 in 10.0 mi East 9.2 mph - N/A   Clear
2:55 AM 53.6 °F 46.4 °F 77% 30.09 in 10.0 mi SE 10.4 mph - N/A   Clear
3:15 AM 53.6 °F 46.4 °F 77% 30.08 in 10.0 mi ESE 9.2 mph - N/A   Clear
3:35 AM 53.6 °F 46.4 °F 77% 30.07 in 10.0 mi ESE 9.2 mph - N/A   Clear
3:55 AM 53.6 °F 46.4 °F 77% 30.07 in 10.0 mi ESE 9.2 mph - N/A   Clear
4:15 AM 53.6 °F 48.2 °F 82% 30.06 in 10.0 mi East 8.1 mph - N/A   Clear
4:35 AM 53.6 °F 48.2 °F 82% 30.06 in 10.0 mi ENE 6.9 mph - N/A   Clear
4:55 AM 53.6 °F 48.2 °F 82% 30.06 in 10.0 mi East 9.2 mph - N/A   Clear
5:15 AM 53.6 °F 48.2 °F 82% 30.07 in 10.0 mi ESE 9.2 mph - N/A   Partly Cloudy
5:35 AM 53.6 °F 48.2 °F 82% 30.07 in 10.0 mi East 8.1 mph - N/A   Partly Cloudy
5:55 AM 53.6 °F 50.0 °F 88% 30.07 in 10.0 mi East 8.1 mph - N/A   Clear
6:15 AM 53.6 °F 50.0 °F 88% 30.06 in 10.0 mi ENE 6.9 mph - N/A   Clear
6:35 AM 55.4 °F 50.0 °F 82% 30.06 in 10.0 mi ENE 6.9 mph - N/A   Clear
6:55 AM 55.4 °F 50.0 °F 82% 30.07 in 10.0 mi NE 6.9 mph - N/A   Clear
7:15 AM 55.4 °F 50.0 °F 82% 30.08 in 10.0 mi NE 6.9 mph - N/A   Clear
7:35 AM 53.6 °F 50.0 °F 88% 30.08 in 10.0 mi NE 6.9 mph - N/A   Clear
7:55 AM 55.4 °F 50.0 °F 82% 30.08 in 10.0 mi NE 6.9 mph - N/A   Partly Cloudy
8:15 AM 55.4 °F 50.0 °F 82% 30.07 in 9.0 mi NE 6.9 mph - N/A   Partly Cloudy
8:35 AM 55.4 °F 50.0 °F 82% 30.08 in 10.0 mi ENE 8.1 mph - N/A   Clear
8:55 AM 57.2 °F 51.8 °F 82% 30.07 in 10.0 mi ENE 8.1 mph - N/A   Clear
9:15 AM 59.0 °F 53.6 °F 82% 30.08 in 10.0 mi ENE 8.1 mph - N/A   Clear
9:35 AM 62.6 °F 53.6 °F 72% 30.08 in 10.0 mi East 9.2 mph - N/A   Clear
9:55 AM 64.4 °F 53.6 °F 68% 30.09 in 10.0 mi ENE 8.1 mph - N/A   Clear
10:15 AM 66.2 °F 53.6 °F 64% 30.09 in 10.0 mi SSE 11.5 mph - N/A   Clear
10:35 AM 66.2 °F 51.8 °F 60% 30.09 in 10.0 mi SE 12.7 mph 20.7 mph N/A   Clear
10:55 AM 68.0 °F 51.8 °F 56% 30.09 in 10.0 mi SSE 18.4 mph 23.0 mph N/A   Clear
11:15 AM 68.0 °F 51.8 °F 56% 30.09 in 10.0 mi SE 15.0 mph 24.2 mph N/A   Partly Cloudy
11:35 AM 69.8 °F 51.8 °F 53% 30.09 in 10.0 mi SSE 9.2 mph 19.6 mph N/A   Mostly Cloudy
11:55 AM 69.8 °F 51.8 °F 53% 30.09 in 10.0 mi SSE 17.3 mph 21.9 mph N/A   Mostly Cloudy
12:15 PM 69.8 °F 51.8 °F 53% 30.08 in 10.0 mi SSE 15.0 mph 23.0 mph N/A   Mostly Cloudy
12:35 PM 71.6 °F 51.8 °F 50% 30.08 in 10.0 mi SE 9.2 mph 19.6 mph N/A   Mostly Cloudy
12:55 PM 71.6 °F 51.8 °F 50% 30.08 in 10.0 mi SSE 10.4 mph 20.7 mph N/A   Mostly Cloudy
1:15 PM 71.6 °F 53.6 °F 53% 30.06 in 10.0 mi SSE 16.1 mph 24.2 mph N/A   Mostly Cloudy
1:35 PM 71.6 °F 53.6 °F 53% 30.06 in 10.0 mi SE 12.7 mph 23.0 mph N/A   Mostly Cloudy
1:55 PM 69.8 °F 53.6 °F 56% 30.05 in - ESE 15.0 mph 25.3 mph N/A   Mostly Cloudy
2:15 PM 69.8 °F 53.6 °F 56% 30.04 in 10.0 mi SSE 20.7 mph 24.2 mph N/A   Overcast
2:35 PM 69.8 °F 53.6 °F 56% 30.03 in 10.0 mi ESE 11.5 mph 27.6 mph N/A   Mostly Cloudy
2:55 PM 69.8 °F 53.6 °F 56% 30.02 in - ESE 10.4 mph 26.5 mph N/A   Mostly Cloudy
3:15 PM 71.6 °F 53.6 °F 53% 30.01 in 10.0 mi ESE 15.0 mph 24.2 mph N/A   Mostly Cloudy
3:35 PM 69.8 °F 53.6 °F 56% 30.00 in - SE 13.8 mph 26.5 mph N/A   Mostly Cloudy
3:55 PM 71.6 °F 55.4 °F 57% 29.99 in 10.0 mi ESE 11.5 mph 23.0 mph N/A   Mostly Cloudy
4:15 PM 69.8 °F 55.4 °F 60% 29.99 in - ENE 8.1 mph 20.7 mph N/A   Mostly Cloudy
4:35 PM 71.6 °F 55.4 °F 57% 29.98 in - ESE 17.3 mph 21.9 mph N/A   Mostly Cloudy
4:55 PM 69.8 °F 55.4 °F 60% 29.98 in - SE 15.0 mph 21.9 mph N/A   Mostly Cloudy
5:15 PM 68.0 °F 55.4 °F 64% 29.97 in - SE 11.5 mph 16.1 mph N/A   Overcast
5:35 PM 68.0 °F 55.4 °F 64% 29.97 in - SE 16.1 mph 19.6 mph N/A   Overcast
5:55 PM 68.0 °F 55.4 °F 64% 29.98 in - ESE 10.4 mph 20.7 mph N/A   Overcast
6:15 PM 68.0 °F 55.4 °F 64% 29.98 in - SE 13.8 mph 18.4 mph N/A   Overcast
6:35 PM 68.0 °F 55.4 °F 64% 29.98 in - SE 13.8 mph 21.9 mph N/A   Overcast
6:55 PM 68.0 °F 55.4 °F 64% 29.98 in - SSE 16.1 mph 21.9 mph N/A   Overcast
7:15 PM 66.2 °F 55.4 °F 68% 29.98 in - East 8.1 mph - N/A   Mostly Cloudy
7:35 PM 66.2 °F 55.4 °F 68% 29.98 in - SE 15.0 mph 19.6 mph N/A   Overcast
7:55 PM 66.2 °F 57.2 °F 73% 29.98 in - ESE 12.7 mph 16.1 mph N/A   Overcast
8:15 PM 66.2 °F 57.2 °F 73% 30.00 in - ESE 8.1 mph - N/A   Overcast
8:35 PM 66.2 °F 57.2 °F 73% 30.00 in - NE 6.9 mph - N/A   Overcast
8:55 PM 66.2 °F 57.2 °F 73% 30.00 in - ESE 10.4 mph - N/A   Overcast
9:15 PM 66.2 °F 57.2 °F 73% 29.99 in - ESE 10.4 mph 17.3 mph N/A   Mostly Cloudy
9:35 PM 64.4 °F 59.0 °F 83% 30.01 in - ENE 5.8 mph - N/A   Mostly Cloudy
9:55 PM 64.4 °F 59.0 °F 83% 30.00 in - East 8.1 mph - N/A   Overcast
10:15 PM 64.4 °F 59.0 °F 83% 29.99 in - ESE 11.5 mph - N/A   Overcast
10:35 PM 64.4 °F 59.0 °F 83% 29.99 in - East 9.2 mph - N/A   Overcast
10:55 PM 64.4 °F 59.0 °F 83% 30.00 in - East 10.4 mph - N/A   Overcast
11:15 PM 64.4 °F 59.0 °F 83% 30.00 in - East 10.4 mph - N/A   Overcast
11:35 PM 64.4 °F 59.0 °F 83% 30.00 in - East 9.2 mph - N/A   Overcast
11:55 PM 64.4 °F 59.0 °F 83% 30.00 in - NE 6.9 mph - N/A   Overcast